Date,TemperatureHighF,TemperatureAvgF,TemperatureLowF,DewpointHighF,DewpointAvgF,DewpointLowF,HumidityHigh,HumidityAvg,HumidityLow,PressureMaxIn,PressureMinIn,WindSpeedMaxMPH,WindSpeedAvgMPH,GustSpeedMaxMPH,PrecipitationSumIn
2013-4-1,40.5,30.7,24.6,31.8,17.1,11.5,81,58,40,30.09,29.70,17,4,17,0.00
2013-4-2,42.3,30.1,20.5,17.4,13.7,10.3,76,52,31,30.24,30.08,18,3,18,0.00
2013-4-3,46.2,31.2,20.8,17.9,13.5,9.5,66,49,32,30.42,30.23,14,1,14,0.00
2013-4-4,60.4,41.1,26.4,22.1,17.4,12.3,60,41,21,30.35,29.94,12,1,12,0.00
2013-4-5,52.0,40.6,31.6,27.7,21.6,15.4,78,49,29,30.20,29.94,12,2,12,0.00
2013-4-6,51.6,39.3,28.8,24.5,20.8,15.4,68,49,34,30.23,29.75,22,5,22,0.00
2013-4-7,55.6,46.6,33.4,44.5,34.1,24.0,73,63,38,30.05,29.60,17,4,17,0.00
2013-4-8,61.0,43.0,30.9,54.6,37.4,24.5,92,81,66,30.05,29.70,21,4,21,0.00
2013-4-9,50.2,43.9,39.4,43.9,40.6,36.7,93,88,77,30.09,29.90,12,2,12,0.00
2013-4-10,43.0,39.5,36.5,41.4,37.6,34.1,94,93,91,30.02,29.81,11,2,11,0.00
2013-4-11,36.7,35.7,34.5,34.8,33.7,32.6,94,93,91,30.02,29.66,17,2,17,0.00
2013-4-12,41.7,37.0,33.3,39.4,34.3,31.7,94,90,79,29.76,29.54,10,2,10,0.00
2013-4-13,41.9,37.5,34.5,36.0,30.5,25.9,91,76,60,29.98,29.75,13,4,13,0.00
2013-4-14,51.6,38.9,30.4,38.3,31.0,25.3,83,73,59,30.11,29.93,17,3,17,0.00
2013-4-15,70.5,55.0,40.1,53.7,44.8,33.1,85,69,54,29.94,29.88,14,4,14,0.00
2013-4-16,63.3,52.2,45.0,53.2,41.1,32.5,89,69,36,30.24,29.88,15,2,15,0.00
2013-4-17,61.5,46.6,37.2,40.8,35.4,29.7,88,67,41,30.36,30.01,23,2,23,0.00
2013-4-18,76.3,57.7,43.3,64.5,53.3,39.7,92,86,66,30.01,29.55,22,5,22,0.00
2013-4-19,57.7,43.6,32.2,55.5,38.0,28.1,94,81,65,29.74,29.35,25,6,25,0.00
2013-4-20,39.9,32.7,27.1,28.2,21.7,15.8,85,64,52,30.44,29.74,14,4,14,0.00
2013-4-21,55.2,37.5,23.4,29.9,23.8,18.2,85,60,36,30.60,30.44,13,3,13,0.00
2013-4-22,69.3,48.2,31.5,34.3,28.4,21.2,81,50,25,30.45,30.19,14,3,14,0.00
2013-4-23,68.2,55.0,42.1,50.7,40.6,30.0,88,60,42,30.20,29.84,14,4,14,0.00
2013-4-24,49.3,38.3,33.8,45.2,33.9,26.8,91,85,66,30.12,29.80,16,3,16,0.00
2013-4-25,53.4,41.0,32.9,39.7,30.4,25.3,84,67,42,30.34,30.08,21,3,21,0.00
2013-4-26,64.8,47.0,30.6,37.5,31.5,24.0,81,58,36,30.45,30.32,14,2,14,0.00
2013-4-27,75.4,56.4,41.7,43.9,36.8,32.0,76,52,24,30.35,30.12,15,3,15,0.00
2013-4-28,62.2,53.6,48.6,50.5,43.3,32.8,90,70,50,30.12,29.86,14,3,14,0.00
2013-4-29,74.3,60.3,51.8,57.2,51.9,49.2,93,76,49,29.95,29.85,7,1,7,0.00
2013-4-30,75.9,61.4,53.4,57.9,53.2,49.4,90,76,49,30.08,29.94,17,3,17,0.00